This is the latest recevied weather packets stored in our database for station/object R2AKT-13. If no packets are shown the sender has not sent any weather packets the latest 10 day(s).
| Time | Temp. | Humidity | Pressure | Rain* | Wind** | Luminosity | Snow |
|---|---|---|---|---|---|---|---|
| 1777616794 | 4.44° C | 52% | 996.4 hPa | - | 0.45 m/s, 221° | - | - |
| 1777616284 | 4.44° C | 53% | 996.3 hPa | - | 0.45 m/s, 247° | - | - |
| 1777615694 | 5° C | 52% | 996.2 hPa | - | 0.45 m/s, 200° | - | - |
| 1777615159 | 4.44° C | 52% | 996.2 hPa | - | 1.34 m/s, 185° | - | - |
| 1777614644 | 4.44° C | 53% | 996.2 hPa | - | 0.45 m/s, 259° | - | - |
| 1777614109 | 3.89° C | 56% | 996.2 hPa | - | 0.45 m/s, 189° | - | - |
| 1777613509 | 3.89° C | 56% | 996.1 hPa | - | 1.34 m/s, 181° | - | - |
| 1777612944 | 3.89° C | 58% | 996.2 hPa | - | 0.89 m/s, 191° | - | - |
| 1777612439 | 3.33° C | 58% | 996.3 hPa | - | 0.45 m/s, 190° | - | - |
| 1777611874 | 3.33° C | 59% | 996.3 hPa | - | 1.34 m/s, 172° | - | - |
| 1777611339 | 2.78° C | 59% | 996.3 hPa | - | 1.34 m/s, 182° | - | - |
| 1777610779 | 2.78° C | 60% | 996.3 hPa | - | 1.34 m/s, 184° | - | - |
| 1777610259 | 2.78° C | 61% | 996.3 hPa | - | 0.89 m/s, 187° | - | - |
| 1777609694 | 2.78° C | 62% | 996.4 hPa | - | 0.89 m/s, 182° | - | - |
| 1777609134 | 2.22° C | 61% | 996.4 hPa | - | 1.34 m/s, 192° | - | - |
| 1777608584 | 2.22° C | 63% | 996.4 hPa | - | 0.89 m/s, 196° | - | - |
| 1777608088 | 2.22° C | 62% | 996.4 hPa | - | 1.79 m/s, 178° | - | - |
| 1777607589 | 2.22° C | 64% | 996.4 hPa | - | 0.45 m/s, 209° | - | - |
| 1777606994 | 2.22° C | 63% | 996.4 hPa | - | 1.34 m/s, 184° | - | - |
| 1777606489 | 1.67° C | 64% | 996.4 hPa | - | 1.34 m/s, 182° | - | - |
| 1777605989 | 1.67° C | 63% | 996.6 hPa | - | 2.24 m/s, 177° | - | - |
| 1777605489 | 1.67° C | 63% | 996.7 hPa | - | 1.79 m/s, 173° | - | - |
| 1777604909 | 1.67° C | 64% | 996.7 hPa | - | 1.34 m/s, 170° | - | - |
| 1777604339 | 1.67° C | 63% | 996.8 hPa | - | 1.34 m/s, 173° | - | - |
| 1777603749 | 2.22° C | 62% | 996.7 hPa | - | 0.45 m/s, 184° | - | - |
* Rain since midnight (hover to see other rain measurements)
** Current wind speed in m/s (hover to see current wind gust speed)